Regional Weather Roundup
Issued by NWS

Home | Current Version | Previous Version | Graphics & Text | Print | Product List | Glossary On
Versions: 1 2 3 4 5 6 7 8 9 10 11 12 13 14 15 16 17 18 19 20 21 22 23 24 25 26 27
000
ASUS45 KBOU 092007
RWRCO

WEATHER ROUNDUP FOR COLORADO
NATIONAL WEATHER SERVICE DENVER/BOULDER CO
100 PM MST FRI DEC 09 2016

NOTE: "FAIR" INDICATES FEW OR NO CLOUDS BELOW 12000 FEET WITH NO
SIGNIFICANT WEATHER AND/OR OBSTRUCTIONS TO VISIBILITY.

COZ001>005-013-030-031-092100-
...NORTHWEST COLORADO...

CITY           SKY/WX    TMP DP  RH WIND       PRES   REMARKS
CRAIG          CLOUDY    36  24  62 CALM      30.22F
HAYDEN         CLOUDY    30  21  69 E7        30.22F WCI  23
MEEKER         CLOUDY    39  24  55 SW14      30.22F
MOUNT WERNER   NOT AVBL
STEAMBOAT SPGS CLOUDY    25  22  89 CALM      30.23F
WALDEN           N/A     34  23  64 SW13G22   30.16S WCI  25
$$

COZ006>008-011-092100-
...WEST CENTRAL VALLEYS...

CITY           SKY/WX    TMP DP  RH WIND       PRES   REMARKS
GRAND JUNCTION FAIR      35  15  44 CALM      30.31F
MONTROSE       PTSUNNY   38  19  46 CALM      30.30F
EAGLE          CLOUDY    34  25  69 CALM      30.28F
RIFLE          CLOUDY    32  18  56 CALM      30.31F
DELTA          NOT AVBL
NUCLA          FAIR      43  21  42 CALM      30.31F
$$

COZ017>023-064>068-092100-
...SOUTHWEST COLORADO...

CITY           SKY/WX    TMP DP  RH WIND       PRES   REMARKS
DURANGO        FAIR      42  17  36 SE6       30.28F
CORTEZ         FAIR      44  22  41 VRB3      30.29F
PAGOSA SPRINGS FAIR      39  17  41 S6        30.29F
TELLURIDE      CLOUDY    40  19  43 E3        30.31F
WOLF CREEK PAS FAIR      28  18  64 S9        30.36F WCI  20
$$

COZ009-010-012-014-032>034-037-058>063-092100-
...CENTRAL COLORADO...

CITY           SKY/WX    TMP DP  RH WIND       PRES   REMARKS
ASPEN          NOT AVBL
BUENA VISTA    CLOUDY    44  19  37 W23G39    30.19R
COPPER MTN     NOT AVBL
BERTHOUD PASS  SNOW      14   3  62 NW29G36   30.18F VSB<1/4 WCI  -7
COTTONWOOD PAS FAIR      36  19  51 W41G67    30.11F HAZE
GUNNISON       CLOUDY    30  21  69 VRB3      30.30F
KREMMLING      CLOUDY    43  30  61 SW10      30.22S
LEADVILLE      CLOUDY    29  20  69 N12       30.22S WCI  19
MONARCH PASS   CLOUDY    21  19  93 W47G58    30.32S WCI  -1
SALIDA         FAIR      46  20  35 W24G31    30.24F
SUNLIGHT       CLOUDY    23  21  93 SW15G25   30.29F WCI  10
WILKERSON PASS FAIR      28  16  59 W20G33    30.18F WCI  15
$$

COZ069>075-092100-
...SAN LUIS VALLEY/SANGRE DE CRISTO MOUNTAINS...

CITY           SKY/WX    TMP DP  RH WIND       PRES   REMARKS
ALAMOSA        FAIR      38  16  40 CALM      30.24F
LA VETA PASS   FAIR      32  21  64 NE32G41   30.19F WCI  17
SAGUACHE       FAIR      36  16  44 S10       30.25F
$$

COZ035-036-038>040-092100-
...NORTHERN COLORADO FRONT RANGE...

CITY           SKY/WX    TMP DP  RH WIND       PRES   REMARKS
DENVER INTL AP FAIR      53  24  32 W6        30.06F
DMNS CITY PARK   N/A     53  22  29 CALM      30.06S
AURORA         MOSUNNY   52  24  32 VRB7      30.07F
FRONT RANGE AP MOSUNNY   55  27  33 W9        30.08
ERIE MUNI ARPT FAIR      32  23  68 NW6       30.07S WCI  26
BOULDER MUN AP FAIR      34  23  64 SE3       30.06S
CENTENNIAL     FAIR      52  22  30 N6        30.07F
BROOMFIELD     MOSUNNY   48  25  40 W17G25    30.07F
FORT COLLINS   FAIR      28  19  69 NW7       30.09R WCI  21
LONGMONT       FAIR      34  20  57 E3        30.08F
$$

COZ041-046-047-076>085-087-088-092100-
...PIKES PEAK/PALMER DIVIDE AND SOUTHERN FOOTHILLS...

CITY           SKY/WX    TMP DP  RH WIND       PRES   REMARKS
COLO. SPRINGS  PTSUNNY   51  26  37 SW9       30.09F
A. F. ACADEMY  FAIR      47  22  38 S6        30.08F
SCHRIEVER AFB  NOT AVBL
ELLICOTT       FAIR     N/A N/A N/A S13       30.08F
FALCON         PTSUNNY   50  21  31 SW9       30.11F
FORT CARSON    FAIR      51  27  40 SE7       30.07F
LIMON          FAIR      45  22  40 E3        30.08F
MONUMENT HILL  FAIR      46  21  36 S6        30.10F
TRINIDAD       FAIR      56  18  22 SE7       30.11F
$$

COZ042>045-048>051-090-091-092100-
...NORTHEAST COLORADO...

CITY           SKY/WX    TMP DP  RH WIND       PRES   REMARKS
GREELEY ARPT   FAIR      28  17  63 VRB3      30.10F
AKRON          FAIR      29  16  58 N3        30.10F
BURLINGTON     FAIR      41  17  38 S15       30.11F
WRAY           NOT AVBL
STERLING       FAIR      28  18  64 SW3       30.12F
HOLYOKE        FAIR      32  16  51 SW6       30.16S WCI  26
FORT MORGAN    FAIR      30  15  52 CALM      30.11F
$$

COZ086-089-092>099-092100-
...SOUTHEAST COLORADO...

CITY           SKY/WX    TMP DP  RH WIND       PRES   REMARKS
PUEBLO         FAIR      40  16  37 SE5       30.09F
LA JUNTA       FAIR      33  10  38 SE5       30.13F WCI  29
LAMAR          FAIR      36  11  35 SW7       30.15F
SPRINGFIELD      N/A     41  20  43 VRB5      30.12F
$$




USA.gov is the U.S. government's official web portal to all federal, state and local government web resources and services.